Location: Friedrichshafen
(47.6598°N, 9.4819°E)
Time: 12:27:46
(UTC+01:00)

ISS - Visible Passes

Search period start: 24 November 2017 00:00
Search period end: 04 December 2017 00:00
Orbit: 402 x 407 km, 51.6° (Epoch: 24 November)

Date Brightness Start Highest point End Pass type
(mag) Time Alt. Az. Time Alt. Az. Time Alt. Az.
27 Nov -1.2 19:07:03 10° SW 19:07:51 16° SSW 19:07:51 16° SSW visible
28 Nov -2.3 18:15:16 10° SSW 18:17:50 22° SE 18:17:50 22° SE visible
29 Nov -1.5 17:24:03 10° SSE 17:25:45 13° SE 17:27:28 10° ESE visible
29 Nov -2.2 18:58:28 10° WSW 19:00:25 32° SW 19:00:25 32° SW visible
30 Nov -3.3 18:06:16 10° SW 18:09:25 44° SSE 18:10:15 35° ESE visible
30 Nov -0.3 19:42:41 10° W 19:42:54 11° W 19:42:54 11° W visible
01 Dec -2.4 17:14:20 10° SSW 17:17:09 27° SE 17:19:58 10° E visible
01 Dec -2.8 18:50:10 10° WSW 18:52:40 47° W 18:52:40 47° W visible
02 Dec -3.9 17:57:43 10° WSW 18:01:00 83° SSE 18:02:23 32° ENE visible
02 Dec -0.5 19:34:33 10° WNW 19:35:02 13° WNW 19:35:02 13° WNW visible
03 Dec -3.4 17:05:25 10° SW 17:08:38 52° SSE 17:11:50 10° ENE visible
03 Dec -2.9 18:41:58 10° W 18:44:42 43° NW 18:44:42 43° NW visible
